When you browse on this site, cookies collect data to enhance your experience and personalize the content and advertising you see.
Visit our Privacy Policy to learn more. By continuing to use the site, you agree to this use of cookies and data.
  • In Schweiz
  • Länderverzeichnis
  • Für 7 Tage
  • Wassertemperatur
  • Satellitenkarten
  • Wetterkarte
  • Widgets
  • user-avatar
    Anmelden

    Stündliche Wetter Völklingen

    Heute, 23 Mai, Donnerstag

    Zeit Temperatur Niederschläge Wind Luftdruck Luftfeuchtigkeit
    00:00 +10°C° 0 mm 1 m/S 743 mmHg 83%
    01:00 +10°C° 0 mm 1 m/S 743 mmHg 84%
    02:00 +9°C° 0 mm 1 m/S 743 mmHg 85%
    03:00 +9°C° 0 mm 1 m/S 743 mmHg 86%
    04:00 +10°C° 0 mm 1 m/S 743 mmHg 83%
    05:00 +12°C° 0 mm 1 m/S 743 mmHg 80%
    06:00 +13°C° 0 mm 1 m/S 743 mmHg 75%
    07:00 +14°C° 0 mm 1 m/S 743 mmHg 70%
    08:00 +16°C° 0 mm 1 m/S 743 mmHg 65%
    09:00 +19°C° 0 mm 1 m/S 743 mmHg 60%
    10:00 +20°C° 0 mm 1 m/S 743 mmHg 58%
    11:00 +21°C° 0 mm 1 m/S 742 mmHg 55%
    12:00 +22°C° 0 mm 1 m/S 742 mmHg 53%
    13:00 +22°C° 0 mm 1 m/S 742 mmHg 53%
    14:00 +22°C° 0 mm 1 m/S 741 mmHg 53%
    15:00 +20°C° 0 mm 0 m/S 741 mmHg 53%
    16:00 +19°C° 0 mm 0 m/S 741 mmHg 58%
    17:00 +18°C° 0 mm 0 m/S 741 mmHg 63%
    18:00 +18°C° 0 mm 0 m/S 740 mmHg 68%
    19:00 +18°C° 0 mm 1 m/S 740 mmHg 71%
    20:00 +15°C° 0 mm 1 m/S 740 mmHg 73%
    21:00 +13°C° 0 mm 1 m/S 740 mmHg 75%
    22:00 +13°C° 0 mm 1 m/S 740 mmHg 75%
    23:00 +12°C° 0 mm 1 m/S 740 mmHg 75%

    Morgen, 24 Mai, Freitag

    Zeit Temperatur Niederschläge Wind Luftdruck Luftfeuchtigkeit
    00:00 +12°C° 0 mm 1 m/S 740 mmHg 75%
    01:00 +12°C° 0 mm 1 m/S 740 mmHg 75%
    02:00 +12°C° 0 mm 1 m/S 740 mmHg 75%
    03:00 +12°C° 0 mm 1 m/S 739 mmHg 75%
    04:00 +13°C° 0 mm 1 m/S 740 mmHg 76%
    05:00 +14°C° 0 mm 1 m/S 740 mmHg 76%
    06:00 +14°C° 0 mm 1 m/S 740 mmHg 77%
    07:00 +16°C° 0 mm 1 m/S 740 mmHg 72%
    08:00 +19°C° 0 mm 1 m/S 740 mmHg 67%
    09:00 +21°C° 0 mm 1 m/S 740 mmHg 62%
    10:00 +22°C° 0 mm 1 m/S 740 mmHg 58%
    11:00 +23°C° 0 mm 1 m/S 740 mmHg 55%
    12:00 +22°C° 0 mm 0 m/S 739 mmHg 52%
    13:00 +22°C° 0 mm 0 m/S 739 mmHg 51%
    14:00 +22°C° 0 mm 0 m/S 739 mmHg 51%
    15:00 +22°C° 0 mm 0 m/S 738 mmHg 50%
    16:00 +23°C° 0.1 mm 1 m/S 738 mmHg 58%
    17:00 +20°C° 0.1 mm 2 m/S 738 mmHg 67%
    18:00 +19°C° 0.1 mm 3 m/S 738 mmHg 75%
    19:00 +17°C° 0 mm 2 m/S 738 mmHg 79%
    20:00 +16°C° 0 mm 2 m/S 739 mmHg 84%
    21:00 +15°C° 0 mm 2 m/S 739 mmHg 88%
    22:00 +14°C° 0 mm 2 m/S 739 mmHg 89%
    23:00 +13°C° 0 mm 2 m/S 739 mmHg 91%

    übermorgen, 25 Mai, Samstag

    Zeit Temperatur Niederschläge Wind Luftdruck Luftfeuchtigkeit
    00:00 +13°C° 0 mm 2 m/S 739 mmHg 92%
    01:00 +12°C° 0 mm 2 m/S 739 mmHg 92%
    02:00 +12°C° 0 mm 2 m/S 739 mmHg 92%
    03:00 +10°C° 0 mm 2 m/S 740 mmHg 93%
    04:00 +12°C° 0 mm 2 m/S 740 mmHg 90%
    05:00 +12°C° 0 mm 2 m/S 740 mmHg 87%
    06:00 +13°C° 0 mm 2 m/S 740 mmHg 83%
    07:00 +15°C° 0 mm 2 m/S 740 mmHg 77%
    08:00 +16°C° 0 mm 2 m/S 740 mmHg 71%
    09:00 +18°C° 0 mm 2 m/S 740 mmHg 65%
    10:00 +19°C° 0 mm 2 m/S 740 mmHg 61%
    11:00 +20°C° 0 mm 2 m/S 740 mmHg 57%
    12:00 +21°C° 0 mm 2 m/S 740 mmHg 53%
    13:00 +21°C° 0 mm 2 m/S 740 mmHg 53%
    14:00 +21°C° 0 mm 2 m/S 740 mmHg 53%
    15:00 +21°C° 0 mm 2 m/S 740 mmHg 53%
    16:00 +20°C° 0 mm 2 m/S 740 mmHg 58%
    17:00 +19°C° 0 mm 2 m/S 740 mmHg 64%
    18:00 +18°C° 0 mm 2 m/S 740 mmHg 70%
    19:00 +16°C° 0 mm 2 m/S 740 mmHg 73%
    20:00 +15°C° 0 mm 2 m/S 740 mmHg 77%
    21:00 +13°C° 0 mm 2 m/S 740 mmHg 80%
    22:00 +12°C° 0 mm 2 m/S 740 mmHg 81%
    23:00 +11°C° 0 mm 1 m/S 740 mmHg 82%

    26 Mai, Sonntag

    Zeit Temperatur Niederschläge Wind Luftdruck Luftfeuchtigkeit
    00:00 +11°C° 0 mm 1 m/S 740 mmHg 83%
    01:00 +10°C° 0 mm 1 m/S 740 mmHg 84%
    02:00 +10°C° 0 mm 1 m/S 740 mmHg 85%
    03:00 +9°C° 0 mm 1 m/S 740 mmHg 86%
    04:00 +11°C° 0 mm 1 m/S 740 mmHg 83%
    05:00 +11°C° 0 mm 0 m/S 740 mmHg 80%
    06:00 +12°C° 0 mm 0 m/S 740 mmHg 76%
    07:00 +15°C° 0 mm 1 m/S 740 mmHg 72%
    08:00 +18°C° 0 mm 1 m/S 740 mmHg 67%
    09:00 +18°C° 0 mm 2 m/S 740 mmHg 62%
    10:00 +19°C° 0 mm 2 m/S 740 mmHg 60%
    11:00 +20°C° 0 mm 2 m/S 740 mmHg 59%
    12:00 +20°C° 0 mm 3 m/S 740 mmHg 57%
    13:00 +21°C° 0 mm 3 m/S 739 mmHg 58%
    14:00 +21°C° 0 mm 3 m/S 739 mmHg 59%
    15:00 +21°C° 0 mm 3 m/S 738 mmHg 61%
    16:00 +20°C° 0 mm 3 m/S 738 mmHg 67%
    17:00 +20°C° 0 mm 3 m/S 738 mmHg 72%
    18:00 +19°C° 0 mm 2 m/S 738 mmHg 78%
    19:00 +17°C° 0 mm 2 m/S 738 mmHg 83%
    20:00 +16°C° 0 mm 2 m/S 738 mmHg 87%
    21:00 +15°C° 0 mm 2 m/S 738 mmHg 92%
    22:00 +14°C° 0 mm 2 m/S 738 mmHg 93%
    23:00 +14°C° 0 mm 2 m/S 737 mmHg 94%

    27 Mai, Montag

    Zeit Temperatur Niederschläge Wind Luftdruck Luftfeuchtigkeit
    00:00 +13°C° 0 mm 2 m/S 737 mmHg 96%
    01:00 +13°C° 0 mm 2 m/S 737 mmHg 96%
    02:00 +13°C° 0 mm 2 m/S 736 mmHg 97%
    03:00 +13°C° 0 mm 2 m/S 736 mmHg 97%
    04:00 +13°C° 0.1 mm 2 m/S 736 mmHg 96%
    05:00 +14°C° 0.1 mm 2 m/S 735 mmHg 95%
    06:00 +14°C° 0.1 mm 2 m/S 735 mmHg 94%
    07:00 +14°C° 0.1 mm 3 m/S 735 mmHg 89%
    08:00 +16°C° 0.1 mm 3 m/S 735 mmHg 85%
    09:00 +18°C° 0.1 mm 4 m/S 735 mmHg 80%
    10:00 +17°C° 0.5 mm 4 m/S 734 mmHg 82%
    11:00 +16°C° 0.5 mm 5 m/S 734 mmHg 84%
    12:00 +16°C° 0.5 mm 5 m/S 733 mmHg 86%
    13:00 +16°C° 0.1 mm 5 m/S 733 mmHg 83%
    14:00 +16°C° 0.1 mm 5 m/S 733 mmHg 81%
    15:00 +17°C° 0.1 mm 4 m/S 732 mmHg 78%
    16:00 +17°C° 0.1 mm 4 m/S 732 mmHg 80%
    17:00 +16°C° 0.1 mm 3 m/S 732 mmHg 82%
    18:00 +16°C° 0.1 mm 3 m/S 732 mmHg 84%
    19:00 +14°C° 0 mm 3 m/S 732 mmHg 85%
    20:00 +14°C° 0 mm 2 m/S 732 mmHg 85%
    21:00 +13°C° 0 mm 2 m/S 733 mmHg 86%
    22:00 +13°C° 0 mm 2 m/S 732 mmHg 87%
    23:00 +12°C° 0 mm 1 m/S 732 mmHg 88%

    28 Mai, Dienstag

    Zeit Temperatur Niederschläge Wind Luftdruck Luftfeuchtigkeit
    00:00 +11°C° 0 mm 1 m/S 732 mmHg 90%
    01:00 +11°C° 0 mm 1 m/S 732 mmHg 90%
    02:00 +11°C° 0 mm 1 m/S 732 mmHg 91%
    03:00 +11°C° 0 mm 1 m/S 732 mmHg 91%
    04:00 +11°C° 0.5 mm 1 m/S 732 mmHg 92%
    05:00 +11°C° 0.5 mm 1 m/S 732 mmHg 92%
    06:00 +11°C° 0.5 mm 1 m/S 733 mmHg 93%
    07:00 +11°C° 0.4 mm 1 m/S 733 mmHg 92%
    08:00 +11°C° 0.4 mm 1 m/S 733 mmHg 92%
    09:00 +11°C° 0.4 mm 1 m/S 733 mmHg 91%
    10:00 +13°C° 0 mm 1 m/S 733 mmHg 82%
    11:00 +15°C° 0 mm 1 m/S 733 mmHg 73%
    12:00 +18°C° 0 mm 1 m/S 734 mmHg 64%
    13:00 +18°C° 0.3 mm 1 m/S 734 mmHg 65%
    14:00 +18°C° 0.3 mm 1 m/S 734 mmHg 67%
    15:00 +18°C° 0.3 mm 1 m/S 734 mmHg 68%
    16:00 +16°C° 0.4 mm 1 m/S 734 mmHg 74%
    17:00 +15°C° 0.4 mm 1 m/S 734 mmHg 81%
    18:00 +14°C° 0.4 mm 1 m/S 734 mmHg 87%
    19:00 +13°C° 0 mm 1 m/S 735 mmHg 88%
    20:00 +12°C° 0 mm 1 m/S 735 mmHg 89%
    21:00 +11°C° 0 mm 1 m/S 736 mmHg 89%
    22:00 +11°C° 0 mm 1 m/S 736 mmHg 90%
    23:00 +10°C° 0 mm 1 m/S 737 mmHg 91%
    Mehr zeigen